Overview Statistics Trail Chart Weather Telemetry Raw packets
 

This is the latest recevied weather packets stored in our database for station/object KQ7A. If no packets are shown the sender has not sent any weather packets the latest 10 day(s).

<< 101 102 103 104 105 106 107 >>
Time Temp. Humidity Pressure Rain* Wind** Luminosity Snow
1787922606 16.11° C 46% 1021.1 hPa 0 mm - 0 W/m² -
1787922305 15.56° C 46% 1020.8 hPa 0 mm - 0 W/m² -
1787922002 15.56° C 54% 1021.1 hPa 0 mm - 0 W/m² -
1787921697 16.11° C 48% 1020.8 hPa 0 mm - 0 W/m² -
1787921396 16.11° C 44% 1020.8 hPa 0 mm - 0 W/m² -
1787921092 16.11° C 44% 1020.6 hPa 0 mm - 0 W/m² -
1787920786 16.11° C 43% 1020.9 hPa 0 mm - 0 W/m² -
1787920481 16.11° C 46% 1020.5 hPa 0 mm - 0 W/m² -
1787920178 15.56° C 48% 1020.6 hPa 0 mm - 0 W/m² -
1787919873 15.56° C 49% 1020.8 hPa 0 mm - 0 W/m² -
1787919571 15.56° C 50% 1020.5 hPa 0 mm - 0 W/m² -
1787919268 15.56° C 53% 1020.7 hPa 0 mm - 0 W/m² -
1787918963 16.11° C 46% 1020.6 hPa 0 mm - 0 W/m² -
1787918657 16.11° C 44% 1020.5 hPa 0 mm - 0 W/m² -
1787918355 16.11° C 46% 1020.6 hPa 0 mm - 0 W/m² -
1787918050 16.11° C 48% 1020.5 hPa 0 mm - 0 W/m² -
1787917740 16.11° C 47% 1020.7 hPa 0 mm - 0 W/m² -
1787917436 15.56° C 50% 1020.8 hPa 0 mm - 0 W/m² -
1787917131 16.11° C 55% 1020.8 hPa 0 mm - 0 W/m² -
1787916826 16.67° C 51% 1020.7 hPa 0 mm - 0 W/m² -
1787916525 17.22° C 40% 1020.5 hPa 0 mm - 0 W/m² -
1787916230 16.67° C 41% 1020.5 hPa 0 mm - 0 W/m² -
1787915916 16.67° C 45% 1020.5 hPa 0 mm - 0 W/m² -
1787915611 16.11° C 47% 1020.5 hPa 0 mm - 0 W/m² -
1787915310 16.11° C 50% 1020.4 hPa 0 mm - 0 W/m² -

* Rain latest hour (hover to see other rain measurements)
** Current wind speed in m/s (hover to see current wind gust speed)